GCLA

La Palma Airport

Airport
ICAO code
GCLA
IATA Code
SPC
Summary
ICAO Region
EUR
ICAO Territory
Location

Villa de Mazo,

Serving
La Palma
Elevation
108 ft
Coordinates
28° 37' 30" N , 17° 45' 20" W
KCC
Csa
Airport WX
Volcanic Ash
Metar
Observation
GCLA 131330Z 03012KT 360V060 9999 FEW030 26/18 Q1017
Station
La Palma / Aeropuerto
Date/Time
2022-08-13 13:30:00
Wind direction
30°
Wind speed
12 kts
Lowest cloud amount
few clouds
Temperature
26°C
Dew point
18°C
Humidity
61%
QNH
1017 hPa
Weather condition
n/a

Description

International airport serving the island of La Palma.

Climatology

Dry-summer subtropical ”Mediterranean" climate (Köppen climate classification Csa) - characterized by hot, dry summers and mild winters. During the summer, subtropical high pressure cells dominate, making rainfall unlikely except for the occasional thunderstorm. In the winter, periodic storms bring rain (snow at higher elevations).

Runways

Designator Length Width Surface Rops
1/19 2200 45 ASP Yes/Yes

Airport map

Aerial View

SKYbrary Partners:

Safety knowledge contributed by: